Regional Weather Roundup
Issued by NWS

Home | Current Version | Previous Version | Text Only | Print | Product List | Glossary Off
Versions: 1 2 3 4 5 6 7 8 9 10 11 12 13 14 15 16 17 18 19 20 21 22 23 24 25 26 27 28 29 30 31 32 33 34 35 36 37 38 39 40 41 42 43 44 45 46 47 48 49 50

000
ASUS43 KMKX 240400
RWRWI

WISCONSIN REGIONAL WEATHER ROUNDUP
NATIONAL WEATHER SERVICE MILWAUKEE/SULLIVAN WI
1100 PM CDT MON OCT 23 2017

NOTE: "FAIR" INDICATES FEW OR NO CLOUDS BELOW 12,000 FEET WITH NO
SIGNIFICANT WEATHER AND/OR OBSTRUCTIONS TO VISIBILITY.

WIZ001-002-006>008-014>016-023>028-240500-
NORTHWEST WISCONSIN

CITY           SKY/WX    TMP DP  RH WIND       PRES   REMARKS
SUPERIOR ARPT  CLOUDY    45  35  66 N13G18    29.82R
ASHLAND        CLOUDY    46  37  71 NW15      29.75S
HAYWARD        CLOUDY    45  37  73 N12G22    29.76S
SIREN          CLOUDY    46  33  62 N16G26    29.82S
CUMBERLAND     CLOUDY    43  34  70 NW17G25   29.78S
RICE LAKE      CLOUDY    45  38  75 NW14G25   29.78S
CHETEK         CLOUDY    46  41  83 NW8       29.76S
LADYSMITH      DRIZZLE   47  42  82 NW18      29.73S
EAU CLAIRE     NOT AVBL
MENOMONIE      CLOUDY    47  39  73 NW14G20   29.77S
NEW RICHMOND   CLOUDY    46  31  57 NW20G29   29.82S
OSCEOLA        CLOUDY    47  32  56 NW12G28   29.85F
$$

WIZ003>005-009-010-017-018-240500-
NORTH CENTRAL WISCONSIN

CITY           SKY/WX    TMP DP  RH WIND       PRES   REMARKS
MANITOWISH WTR RAIN      45  45 100 NW13G21   29.66F
ARBOR VITAE    RAIN      49  47  93 N17G25    29.64F
WOODRUFF       RAIN      49  47  93 N17G25    29.64F
RHINELANDER    LGT RAIN  48  48 100 NW12G20   29.62F FOG
EAGLE RIVER    LGT RAIN  47  46  98 N5        29.62F
LAND O LAKES   DRIZZLE   47  44  88 N8        29.64F
PHILLIPS       RAIN      45  45  99 N9G21     29.68S
TOMAHAWK       LGT RAIN  46  44  93 NW8       29.65F
MEDFORD        RAIN      45  43  94 NW13      29.65F
MERRILL        LGT RAIN  47  47  98 N9G16     29.63F
$$

WIZ029-030-035-036-043>047-240500-
CENTRAL WISCONSIN

CITY           SKY/WX    TMP DP  RH WIND       PRES   REMARKS
WAUSAU         LGT RAIN  48  46  93 NW12G23   29.59F
MOSINEE        LGT RAIN  46  46 100 NW13G20   29.62F
MARSHFIELD     LGT RAIN  47  43  86 NW16G26   29.63F
STEVENS POINT  LGT RAIN  47  47 100 NW10G17   29.60F
WAUPACA        DRIZZLE   51  49  93 W6        29.58F
WAUTOMA        LGT RAIN N/A N/A N/A NW13      29.58F
WISC RAPIDS    RAIN      49  46  90 NW16      29.63F
CAMP DOUGLAS   LGT RAIN  48  45  87 NW14G25   29.65F
$$

WIZ011>013-019>022-031-037>040-048>050-240500-
NORTHEAST WISCONSIN

CITY           SKY/WX    TMP DP  RH WIND       PRES   REMARKS
ANTIGO         DRIZZLE   46  45  97 N13       29.59F
SHAWANO        CLOUDY    49  46  92 W3        29.56F
OCONTO         CLOUDY    47  45  91 CALM      29.54F
STURGEON BAY   CLOUDY    51  44  77 NW7       29.52F
GREEN BAY      CLOUDY    48  48 100 W5        29.54F
MANITOWOC      CLOUDY    48  46  93 W6        29.53F
APPLETON       CLOUDY    48  43  81 NW9       29.53F
CLINTONVILLE   NOT AVBL
OSHKOSH        CLOUDY    50  46  86 W9        29.54F
$$

WIZ032>034-041-042-053>061-240500-
SOUTHWEST WISCONSIN

CITY           SKY/WX    TMP DP  RH WIND       PRES   REMARKS
LA CROSSE      CLOUDY    50  41  71 NW20G28   29.72S
SPARTA         LGT RAIN  46  44  92 NW10      29.71S
VIROQUA        CLOUDY    48  42  80 NW13G23   29.70F
BOSCOBEL       CLOUDY    51  42  71 NW6       29.70F
PRAIRIE DU CHI CLOUDY    49  39  67 NW14G23   29.73S
PLATTEVILLE    CLOUDY    47  44  88 NW10      29.70F
$$

WIZ056-057-062-063-064-067-068-240500-
SOUTH CENTRAL WISCONSIN

CITY           SKY/WX    TMP DP  RH WIND       PRES   REMARKS
REEDSBURG      DRIZZLE   48  44  88 W13       29.65F
BARABOO/DELLS  RAIN      47  43  85 NW10G21   29.64F
LONE ROCK      NOT AVBL
MINERAL POINT  CLOUDY    50  43  76 W10G18    29.67F
MADISON        LGT RAIN  49  46  90 NW10G16   29.61F
MIDDLETON      CLOUDY    50  47  90 W12       29.64F
WATERTOWN      LGT RAIN  49  49 100 W7        29.60F
MONROE         DRIZZLE   48  41  76 W14G22    29.65F
JANESVILLE     RAIN      48  48 100 W9        29.63F
$$

WIZ051-052-058>065-066-070>072-240500-
SOUTHEAST WISCONSIN

CITY           SKY/WX    TMP DP  RH WIND       PRES   REMARKS
MILWAUKEE      CLOUDY    53  46  77 W9        29.56F
WAUKESHA       CLOUDY    48  43  81 W16       29.58F
MILWAUKEE/TIMM CLOUDY    50  43  76 W10       29.57F
RACINE         CLOUDY    51  46  83 W10       29.57F
BURLINGTON     LGT RAIN  49  47  90 W14G22    29.59F
KENOSHA        CLOUDY    52  45  77 W16G22    29.56F
FOND DU LAC    CLOUDY    51  44  77 W14       29.55F
SHEBOYGAN      CLOUDY    48  47  96 CALM      29.54F
WEST BEND      CLOUDY    50  45  81 W12       29.55F
JUNEAU         LGT RAIN  49  46  91 W6        29.60F
$$

LSZ147-162-240500-
LAKE SUPERIOR

STATION/POSITION TIME  TEMP    WIND        PRES    WAVE
                       AIR SEA DIR/SP/G            HT/PER
                 (UTC) (F)     (DEG/KT/KT) (MB)    (FT/S)
W MID LAKE BUOY  0250   51 51              1004.7S   2/ 3
DEVILS ISLAND    0300   47     330/ 24/ 28 1007.7R
PORT WING        0340          330/ 22/ 27 1008.8F
SAXON HARBOR     0330   50     320/ 22/ 26 1006.4S
$$

LMZ867-665-643>646-240500-
LAKE MICHIGAN

STATION/POSITION TIME  TEMP    WIND        PRES    WAVE
                       AIR SEA DIR/SP/G            HT/PER
                 (UTC) (F)     (DEG/KT/KT) (MB)    (FT/S)
S GREEN BAY BUOY 0330   52 58  330/ 10/ 12 1000.7F
N MID LAKE BUOY  0250   53 56  340/ 16/ 17 1000.0F   2/ 4
NORTHPORT PIER   0340   54     330/ 14/ 16  999.0F
KEWAUNEE LAKESHO 0324   48     300/  5/  6  999.8
SHEBOYGAN LAKESH 0300   50     290/  5/  6 1001.0F
PORT WASHINGTON  0340   50      CALM  /  2 1002.0F
MILWAUKEE LAKESH 0330   52     280/  8/ 10   N/A
S MID LAKE BUOY  0250   54 60  310/ 12/ 16 1001.5F   3/ 5
KENOSHA   LAKESH 0300   51     280/  6/  8 1002.0
$$

TC  - TEMPERATURE IN CELSIUS
VSB - VISIBILITY IN STATUTE MILES
WCI - WIND CHILL INDEX
HX  - HEAT INDEX





USA.gov is the U.S. government's official web portal to all federal, state and local government web resources and services.